Вернуться в каталог

POLYITAN 1

АктивенНаукаPO
NORAD 40042·PAYLOAD·🇺🇦 Ukraine

Запущен Jun 19, 2014 с Dombarovsky

Loading…

Ближайшие Пролёты (ближайшие 24 часа)

TLE

СвежийSource: Space-Track

Эпоха: Sep 14, 2026, 01:12 UTC

1 40042U 14033AJ  26257.05037827  .00016110  00000-0  46030-3 0  9990
2 40042  98.0887 291.9027 0006482 182.1868 177.9346 15.36081254667221

Отслеживайте POLYITAN 1 в реальном времени с AllMySat

Download on the App Store